Weather History for PASC - January, 2013

Change the Weather History Date:

Wednesday, January 9, 2013

  Actual Average Record
Temperature  
Mean Temperature -8 °F -  
Max Temperature -5 °F -5 °F 32 °F (2011)
Min Temperature -13 °F -17 °F -41 °F (1990)
Degree Days  
Heating Degree Days 73    
Moisture  
Dew Point -13 °F    
Average Humidity 81    
Maximum Humidity 87    
Minimum Humidity 74    
Precipitation  
Precipitation 0.00 in - - ()
Sea Level Pressure  
Sea Level Pressure 30.20 in    
Wind  
Wind Speed 10 mph (West)    
Max Wind Speed 16 mph    
Max Gust Speed -    
Visibility 4 miles    
Events      
Averages and records for this station are not official NWS values.
T = Trace of Precipitation, MM = Missing Value Source: NWS Daily Summary

Daily Weather History Graph

Daily Weather History Graph

Search for Another Location

Airport or City:

Trip Planner

Search our weather history database for the weather conditions in past years. The results will help you decide how hot, cold, wet, or windy it might be!

Date:

Astronomy

Jan. 09, 2013 Rise Set
Actual Time 12:28 PM AKST 1:33 PM AKST
Civil Twilight 10:29 AM AKST 3:33 PM AKST
Nautical Twilight 8:50 AM AKST 5:12 PM AKST
Astronomical Twilight 7:33 AM AKST 6:30 PM AKST
Moon No Moon Rise No Moon Set
Length of Visible Light 5h 04m
Length of Day
1h 04m
Waning Crescent, 5% of the Moon is Illuminated
Jan 9
Waning Crescent
Jan 11
New
Jan 18
First Quarter
Jan 26
Full
Feb 3
Last Quarter

Hourly Weather History & Observations

Time (AKST) Temp. Windchill Dew Point Humidity Pressure Visibility Wind Dir Wind Speed Gust Speed Precip Events Conditions
12:53 AM -9.0 °F -29.3 °F -15.0 °F 75% 30.17 in 10.0 mi SW 12.7 mph - N/A   Overcast
1:53 AM -9.9 °F -32.1 °F -15.0 °F 78% 30.19 in 10.0 mi WSW 15.0 mph - N/A   Overcast
2:53 AM -9.0 °F -30.2 °F -15.0 °F 75% 30.20 in 6.0 mi WSW 13.8 mph - N/A   Overcast
3:53 AM -11.0 °F -32.7 °F -16.1 °F 78% 30.20 in 7.0 mi WSW 13.8 mph - N/A   Overcast
4:53 AM -9.9 °F -32.8 °F -16.1 °F 74% 30.21 in 6.0 mi WSW 16.1 mph - N/A   Overcast
5:53 AM -9.9 °F -31.3 °F -16.1 °F 74% 30.22 in 6.0 mi WSW 13.8 mph - N/A   Overcast
6:53 AM -9.9 °F -32.1 °F -13.2 °F 86% 30.23 in 6.0 mi WSW 15.0 mph - N/A   Overcast
7:53 AM -9.0 °F -27.4 °F -12.1 °F 86% 30.23 in 8.0 mi WSW 10.4 mph - N/A   Overcast
8:44 AM -7.6 °F -24.6 °F -11.2 °F 84% 30.22 in 10.0 mi WSW 9.2 mph - N/A   Overcast
8:53 AM -8.0 °F -26.1 °F -11.9 °F 83% 30.23 in 8.0 mi WSW 10.4 mph - N/A   Overcast
9:53 AM -8.0 °F -26.1 °F -11.9 °F 83% 30.23 in 6.0 mi WSW 10.4 mph - N/A   Overcast
10:53 AM -8.0 °F -28.0 °F -13.0 °F 79% 30.23 in 10.0 mi WSW 12.7 mph - N/A   Overcast
11:53 AM -8.0 °F -27.1 °F -13.0 °F 79% 30.24 in 9.0 mi WSW 11.5 mph - N/A   Overcast
12:53 PM -7.1 °F -21.4 °F -11.9 °F 79% 30.24 in 10.0 mi WSW 6.9 mph - N/A   Overcast
1:30 PM -7.6 °F -24.6 °F -11.2 °F 84% 30.23 in 9.0 mi WSW 9.2 mph - N/A   Overcast
1:51 PM -5.8 °F -19.9 °F -9.4 °F 84% 30.23 in 2.0 mi West 6.9 mph - N/A   Overcast
1:53 PM -6.0 °F -21.5 °F -9.0 °F 87% 30.24 in 2.0 mi West 8.1 mph - N/A   Overcast
2:01 PM -5.8 °F -19.9 °F -9.4 °F 84% 30.23 in 1.2 mi West 6.9 mph - N/A   Overcast
2:53 PM -6.0 °F -21.5 °F -9.0 °F 87% 30.22 in 0.8 mi West 8.1 mph - N/A   Mist
3:53 PM -7.1 °F -21.4 °F -9.9 °F 87% 30.22 in 0.8 mi WNW 6.9 mph - N/A   Mist
4:12 PM -7.6 °F -20.6 °F -11.2 °F 84% 30.20 in 1.0 mi West 5.8 mph - N/A   Mist
4:20 PM -7.6 °F -23.4 °F -11.2 °F 84% 30.20 in 0.8 mi West 8.1 mph - N/A   Mist
4:48 PM -7.6 °F -18.8 °F -11.2 °F 84% 30.20 in 1.0 mi West 4.6 mph - N/A   Mist
4:53 PM -8.0 °F -22.5 °F -11.9 °F 83% 30.21 in 1.0 mi WNW 6.9 mph - N/A   Mist
5:02 PM -7.6 °F -20.6 °F -11.2 °F 84% 30.20 in 0.8 mi WNW 5.8 mph - N/A   Mist
5:53 PM -9.0 °F -23.8 °F -13.0 °F 83% 30.19 in 1.0 mi West 6.9 mph - N/A   Mist
6:03 PM -9.4 °F -22.7 °F -13.0 °F 84% 30.18 in 0.8 mi WNW 5.8 mph - N/A   Mist
6:53 PM -9.0 °F -23.8 °F -13.0 °F 83% 30.18 in 1.2 mi West 6.9 mph - N/A   Overcast
7:53 PM -9.9 °F -19.2 °F -14.1 °F 82% 30.17 in 1.0 mi West 3.5 mph - N/A   Mist
8:00 PM -9.4 °F -20.9 °F -14.8 °F 77% 30.16 in 0.8 mi West 4.6 mph - N/A   Mist
8:53 PM -11.0 °F -24.6 °F -16.1 °F 78% 30.17 in 0.8 mi WNW 5.8 mph - N/A   Mist
9:53 PM -11.9 °F -23.8 °F -17.0 °F 78% 30.15 in 0.8 mi WNW 4.6 mph - N/A   Mist
10:53 PM -11.9 °F -21.5 °F -17.0 °F 78% 30.14 in 0.8 mi NW 3.5 mph - N/A   Mist
11:53 PM -13.0 °F -22.7 °F -18.9 °F 75% 30.13 in 2.0 mi WNW 3.5 mph - N/A   Overcast